TimeSAST,TemperatureF,Dew PointF,Humidity,Sea Level PressureIn,VisibilityMPH,Wind Direction,Wind SpeedMPH,Gust SpeedMPH,PrecipitationIn,Events,Conditions,WindDirDegrees,DateUTC
12:00 AM,62.6,57.2,82,29.86,-9999.0,NNW,3.5,-,N/A,,Clear,330,2012-12-28 22:00:00
1:00 AM,62.6,55.4,77,29.86,-9999.0,WNW,3.5,-,N/A,,Clear,300,2012-12-28 23:00:00
2:00 AM,65,56,65,29.86,6,NW,3.5,,,,,310,2012-12-29 00:00:00
2:00 AM,62.6,55.4,77,29.86,-9999.0,North,3.5,-,N/A,,Clear,350,2012-12-29 00:00:00
3:00 AM,62.6,57.2,82,29.83,-9999.0,NNW,2.3,-,N/A,,Clear,340,2012-12-29 01:00:00
4:00 AM,62.6,55.4,77,29.83,-9999.0,Variable,2.3,-,N/A,,Clear,0,2012-12-29 02:00:00
5:00 AM,62,56,76,29.82,12,NNW,3.5,,,,,330,2012-12-29 03:00:00
5:00 AM,62.6,55.4,77,29.80,-9999.0,North,3.5,-,N/A,,Clear,350,2012-12-29 03:00:00
6:00 AM,62.6,55.4,77,29.83,-9999.0,NW,3.5,-,N/A,,Clear,320,2012-12-29 04:00:00
7:00 AM,69.8,57.2,64,29.83,-9999.0,North,5.8,-,N/A,,Clear,10,2012-12-29 05:00:00
8:00 AM,75,56,41,29.81,12,SW,3.5,,,,,230,2012-12-29 06:00:00
8:00 AM,75.2,55.4,50,29.83,-9999.0,SW,3.5,-,N/A,,Clear,230,2012-12-29 06:00:00
9:00 AM,78.8,55.4,44,29.83,-9999.0,South,9.2,-,N/A,,Clear,190,2012-12-29 07:00:00
10:00 AM,82.4,57.2,42,29.83,-9999.0,SSW,4.6,-,N/A,,Clear,210,2012-12-29 08:00:00
11:00 AM,87,57,26,29.78,19,SSE,5.8,,,,,160,2012-12-29 09:00:00
11:00 AM,86.0,59.0,40,29.80,-9999.0,SE,6.9,-,N/A,,Clear,140,2012-12-29 09:00:00
12:00 PM,87.8,57.2,35,29.80,-9999.0,South,8.1,-,N/A,,Clear,190,2012-12-29 10:00:00
1:00 PM,84.2,57.2,40,29.80,6.2,SSE,15.0,-,N/A,,Partly Cloudy,160,2012-12-29 11:00:00
2:00 PM,85,56,27,29.82,12,SSW,10.4,,,,Scattered Clouds,200,2012-12-29 12:00:00
2:00 PM,86.0,57.2,37,29.80,6.2,South,10.4,-,N/A,,Partly Cloudy,180,2012-12-29 12:00:00
3:00 PM,82.4,57.2,42,29.80,6.2,South,10.4,-,N/A,,Partly Cloudy,190,2012-12-29 13:00:00
4:00 PM,82.4,57.2,42,29.80,6.2,SSE,8.1,-,N/A,,Partly Cloudy,160,2012-12-29 14:00:00
5:00 PM,80,58,36,29.81,12,South,6.9,,,,Scattered Clouds,180,2012-12-29 15:00:00
5:00 PM,80.6,57.2,45,29.80,6.2,South,6.9,-,N/A,,Partly Cloudy,180,2012-12-29 15:00:00
6:00 PM,78.8,57.2,47,29.80,6.2,South,9.2,-,N/A,,Partly Cloudy,170,2012-12-29 16:00:00
7:00 PM,75.2,57.2,53,29.83,6.2,ESE,5.8,-,N/A,,Partly Cloudy,110,2012-12-29 17:00:00
8:00 PM,72,59,54,29.88,12,SE,4.6,,,,Clear,130,2012-12-29 18:00:00
8:00 PM,73.4,59.0,61,29.86,-9999.0,ESE,3.5,-,N/A,,Clear,120,2012-12-29 18:00:00
9:00 PM,71.6,59.0,64,29.89,-9999.0,SE,3.5,-,N/A,,Clear,140,2012-12-29 19:00:00
10:00 PM,69.8,59.0,68,29.92,-9999.0,SSE,3.5,-,N/A,,Clear,150,2012-12-29 20:00:00
11:00 PM,68.0,60.8,78,29.92,-9999.0,SE,2.3,-,N/A,,Clear,140,2012-12-29 21:00:00